Stations météo

réclame
Mon MeteoGroup
Boulogne, France (7002): Température de l'air & dewpoint: 14.11.2017 12:00:00 - 20.11.2017 12:00:00 (CET)Boulogne, France (7002): Vitesse du vent & gusts: 14.11.2017 12:00:00 - 20.11.2017 12:00:00 (CET)Boulogne, France (7002): Direction du vent: 14.11.2017 12:00:00 - 20.11.2017 12:00:00 (CET)Boulogne, France (7002): reduced air pressure: 14.11.2017 12:00:00 - 20.11.2017 12:00:00 (CET)Boulogne, France (7002): visibility: 14.11.2017 12:00:00 - 20.11.2017 12:00:00 (CET)Boulogne, France (7002): Quantités de précipitations: 14.11.2017 12:00:00 - 20.11.2017 12:00:00 (CET)
Date & Time tt [°C] td [°C] ff [km/h] ff [knt] fx [km/h] fx [knt] dd ppp [hPa] vv [km] rr [mm]
20.11.2017 12:00:00 11,3 9,6 32 18 57 31 WSW 1017,2 - 0,2
20.11.2017 11:00:00 10,5 9,9 29 16 49 26 W 1017,9 - 0,2
20.11.2017 10:00:00 10,1 9,3 31 17 47 26 W 1018,3 - 2,0
20.11.2017 09:00:00 10,0 9,4 26 14 46 25 SW 1018,3 - 1,0
20.11.2017 08:00:00 9,0 8,2 22 12 41 22 SSW 1018,9 - 0,2
20.11.2017 07:00:00 6,5 5,4 19 11 32 17 SSE 1019,7 10 0,4
20.11.2017 06:00:00 5,5 3,0 14 8 24 13 SE 1020,2 - 0,0
20.11.2017 05:00:00 5,4 2,6 11 6 19 10 SSE 1020,6 - 0,0
20.11.2017 04:00:00 6,0 1,5 8 4 23 13 S 1021,5 - 0,0
20.11.2017 03:00:00 7,2 1,9 13 7 25 14 WSW 1022,1 - 0,0
20.11.2017 02:00:00 7,3 1,4 15 8 28 15 WSW 1022,8 - 0,0
20.11.2017 01:00:00 6,9 2,0 10 6 23 12 WSW 1023,7 15 0,0
20.11.2017 00:00:00 6,9 2,2 12 7 22 12 WSW 1024,2 - 0,0
19.11.2017 23:00:00 6,9 2,4 9 5 21 12 WSW 1024,3 - 0,0
19.11.2017 22:00:00 6,7 1,8 8 4 18 10 WSW 1024,2 20 0,0
19.11.2017 21:00:00 6,0 1,1 0 0 10 5 N 1024,4 - 0,0
19.11.2017 20:00:00 6,8 1,3 3 1 18 10 SSW 1024,2 - 0,0
19.11.2017 19:00:00 6,9 0,6 10 5 21 12 WNW 1024,4 20 0,0
19.11.2017 18:00:00 6,7 1,2 11 6 20 11 WNW 1024,1 - 0,0
19.11.2017 17:00:00 6,7 1,6 11 6 16 9 WNW 1023,9 - 0,0
19.11.2017 16:00:00 7,3 2,0 9 5 17 9 WNW 1023,9 - 0,0
19.11.2017 15:00:00 7,4 2,1 11 6 21 11 WNW 1023,9 - 0,0
19.11.2017 14:00:00 7,5 2,0 8 5 18 10 WNW 1024,0 - 0,0
19.11.2017 13:00:00 7,2 1,1 8 4 20 11 WNW 1023,9 30 0,0
19.11.2017 12:00:00 6,8 1,3 11 6 24 13 NW 1023,9 - 0,0
19.11.2017 11:00:00 6,4 1,5 14 7 28 15 NW 1023,7 - 0,0
19.11.2017 10:00:00 5,8 0,5 18 10 29 15 NNW 1023,2 15 0,0
19.11.2017 09:00:00 5,3 0,5 17 9 34 18 N 1022,8 - 0,0
19.11.2017 08:00:00 5,4 0,0 22 12 38 21 NNW 1022,2 - 0,0
19.11.2017 07:00:00 5,9 1,6 22 12 42 23 NNW 1021,6 10 0,0
19.11.2017 06:00:00 6,5 2,6 21 12 41 22 NNW 1021,2 - 0,0
19.11.2017 05:00:00 6,6 3,0 23 13 41 22 NNW 1021,0 - 0,0
19.11.2017 04:00:00 6,9 3,3 23 13 42 23 NNW 1020,7 - 0,0
19.11.2017 03:00:00 7,4 3,6 25 13 41 22 NNW 1020,5 - 0,0
19.11.2017 02:00:00 7,8 4,0 25 13 42 23 NNW 1020,3 - 0,0
19.11.2017 01:00:00 8,2 5,1 27 15 42 23 NNW 1020,1 6 0,0
19.11.2017 00:00:00 8,4 5,7 24 13 39 21 NNW 1019,9 - 0,0
18.11.2017 23:00:00 8,9 5,3 24 13 37 20 NNW 1019,8 - 0,0
18.11.2017 22:00:00 8,5 5,8 18 10 39 21 NW 1019,9 6 0,2
18.11.2017 21:00:00 8,1 6,9 15 8 39 21 NNW 1019,9 - 0,5
18.11.2017 20:00:00 8,1 7,3 20 11 62 33 N 1020,0 - 0,2
18.11.2017 19:00:00 10,2 9,3 31 17 61 33 WNW 1019,8 6 0,8
18.11.2017 18:00:00 10,3 9,2 40 22 64 35 W 1020,0 - 1,0
18.11.2017 17:00:00 10,1 9,3 39 21 66 36 W 1020,3 - 1,8
18.11.2017 16:00:00 10,1 9,5 43 23 61 33 W 1020,8 1,5 1,6
18.11.2017 15:00:00 9,7 8,6 34 18 51 28 W 1021,5 - 0,2
18.11.2017 14:00:00 10,3 7,0 29 15 50 27 W 1022,1 - 0,0
18.11.2017 13:00:00 9,8 6,1 29 15 44 24 W 1023,2 15 0,0
18.11.2017 12:00:00 9,0 5,6 30 16 44 24 W 1024,0 - 0,0
18.11.2017 11:00:00 8,9 4,9 26 14 45 24 W 1024,5 - 0,0
18.11.2017 10:00:00 8,2 3,8 29 16 45 24 WNW 1024,5 18 0,0
18.11.2017 09:00:00 7,6 2,1 28 15 48 26 WNW 1024,6 - 0,0
18.11.2017 08:00:00 7,2 1,3 29 15 48 26 WNW 1024,6 - 0,0
18.11.2017 07:00:00 7,4 1,0 27 14 47 26 WNW 1024,6 18 0,0
18.11.2017 06:00:00 7,4 0,6 30 16 44 24 WNW 1024,6 - 0,0
18.11.2017 05:00:00 7,0 0,9 22 12 36 20 WNW 1025,2 - 0,0
18.11.2017 04:00:00 6,8 1,5 19 11 34 18 WNW 1025,9 - 0,0
18.11.2017 03:00:00 5,7 1,0 13 7 26 14 W 1026,3 - 0,0
18.11.2017 02:00:00 5,7 1,2 10 6 24 13 W 1026,9 - 0,0
18.11.2017 01:00:00 4,1 0,4 2 1 10 5 S 1027,3 - 0,0
18.11.2017 00:00:00 3,5 0,9 9 5 11 6 SE 1027,4 - 0,0
17.11.2017 23:00:00 4,1 1,5 6 4 8 4 ESE 1027,8 - 0,0
17.11.2017 22:00:00 5,2 1,3 5 3 6 3 E 1028,1 15 0,0
17.11.2017 21:00:00 5,4 1,7 3 2 9 5 ENE 1028,0 - 0,0
17.11.2017 20:00:00 6,4 0,9 5 3 10 6 E 1028,0 - 0,0
17.11.2017 19:00:00 6,9 1,2 5 3 16 9 NNE 1028,3 20 0,0
17.11.2017 18:00:00 7,5 2,4 8 5 19 10 NE 1028,4 - 0,0
17.11.2017 17:00:00 7,8 3,1 10 5 17 9 NNE 1028,2 - 0,0
17.11.2017 16:00:00 8,9 3,1 9 5 16 9 NNE 1028,3 25 0,0
17.11.2017 15:00:00 9,3 3,9 9 5 19 10 NNE 1028,5 - 0,0
17.11.2017 14:00:00 9,4 4,8 11 6 19 10 N 1028,9 - 0,0
17.11.2017 13:00:00 9,3 4,9 11 6 23 13 N 1029,2 25 0,0
17.11.2017 12:00:00 9,3 4,9 11 6 23 12 NNE 1029,2 - 0,0
17.11.2017 11:00:00 8,8 4,8 10 5 19 10 NE 1029,1 - 0,0
17.11.2017 10:00:00 7,8 4,2 8 5 18 10 NE 1029,1 25 0,0
17.11.2017 09:00:00 7,7 4,1 9 5 21 11 NE 1029,0 - 0,0
17.11.2017 08:00:00 7,7 4,1 9 5 16 9 NE 1028,6 - 0,0
17.11.2017 07:00:00 8,0 4,6 7 4 14 8 NE 1028,4 20 0,0
17.11.2017 06:00:00 8,3 4,1 6 4 16 9 NE 1028,0 - 0,0
17.11.2017 05:00:00 8,0 4,6 7 4 22 12 NE 1027,7 - 0,0
17.11.2017 04:00:00 8,4 5,1 10 5 20 11 NE 1027,3 15 0,0
17.11.2017 03:00:00 8,6 5,3 9 5 25 13 NE 1027,2 - 0,0
17.11.2017 02:00:00 9,0 6,3 11 6 20 11 NNE 1026,9 - 0,0
17.11.2017 01:00:00 8,9 6,7 11 6 25 13 NE 1026,8 15 0,2
17.11.2017 00:00:00 9,2 7,3 11 6 29 15 NE 1026,6 - 0,0
16.11.2017 23:00:00 9,6 7,9 16 8 40 22 NNE 1026,2 - 0,0
16.11.2017 22:00:00 10,2 9,0 15 8 39 21 N 1025,6 15 0,4
16.11.2017 21:00:00 11,9 9,8 12 7 22 12 WNW 1025,1 - 0,0
16.11.2017 20:00:00 11,7 10,1 14 8 21 11 W 1024,8 - 0,0
16.11.2017 19:00:00 11,5 10,2 14 8 29 16 WSW 1024,3 15 0,0
16.11.2017 18:00:00 12,1 9,7 14 8 27 15 W 1023,8 - 0,0
16.11.2017 17:00:00 12,1 9,3 17 9 30 16 W 1023,6 - 0,0
16.11.2017 16:00:00 12,0 9,4 19 10 27 15 W 1023,3 - 0,0
16.11.2017 15:00:00 11,4 10,0 16 9 23 12 W 1023,2 - 0,0
16.11.2017 14:00:00 11,4 10,5 14 8 24 13 W 1023,3 - 0,0
16.11.2017 13:00:00 11,0 10,4 5 3 28 15 SSW 1023,4 - 0,2
16.11.2017 12:00:00 11,4 10,6 19 11 29 16 W 1023,6 - 0,0
16.11.2017 11:00:00 11,8 10,4 10 6 22 12 W 1023,6 - 0,2
16.11.2017 10:00:00 12,1 11,5 15 8 32 18 WSW 1023,3 - 0,0
16.11.2017 09:00:00 11,6 11,0 16 8 26 14 SSW 1022,9 - 0,2
16.11.2017 08:00:00 10,9 10,3 18 10 33 18 SSW 1022,6 - 0,0
16.11.2017 07:00:00 11,1 10,5 16 8 27 15 SSW 1022,4 10 0,2
16.11.2017 06:00:00 10,6 10,0 10 6 17 9 SSE 1022,2 - 0,0
16.11.2017 05:00:00 10,8 10,2 8 4 15 8 S 1022,6 - 0,0
16.11.2017 04:00:00 10,8 10,3 5 3 12 7 S 1022,8 10 0,0
16.11.2017 03:00:00 10,7 10,1 6 4 17 9 SSE 1023,1 - 0,0
16.11.2017 02:00:00 10,6 10,0 9 5 19 10 SSE 1023,2 - 1,4
16.11.2017 01:00:00 10,5 9,7 12 7 29 15 SSE 1023,4 15 0,0
16.11.2017 00:00:00 10,6 9,7 15 8 26 14 SSE 1023,7 - 0,0
15.11.2017 23:00:00 10,7 9,6 16 9 31 17 S 1023,9 - 0,0
15.11.2017 22:00:00 10,8 9,4 16 8 25 14 S 1024,2 - 0,0
15.11.2017 21:00:00 10,8 9,7 16 8 26 14 S 1024,2 - 0,0
15.11.2017 20:00:00 10,8 9,7 14 8 24 13 S 1024,3 - 0,0
15.11.2017 19:00:00 11,0 10,1 13 7 31 17 S 1024,4 15 0,0
15.11.2017 18:00:00 11,4 10,5 16 9 27 14 S 1024,5 - 0,0
15.11.2017 17:00:00 11,8 10,7 10 5 22 12 S 1024,4 - 0,0
15.11.2017 16:00:00 12,2 10,8 8 4 18 10 S 1024,7 - 0,0
15.11.2017 15:00:00 12,4 9,8 10 6 19 10 SSW 1024,9 - 0,0
15.11.2017 14:00:00 12,7 9,7 9 5 18 10 SSW 1024,5 - 0,0
15.11.2017 13:00:00 12,4 10,1 10 5 19 10 SSW 1025,1 - 0,0
15.11.2017 12:00:00 11,7 10,4 11 6 17 9 S 1025,3 - 0,0
15.11.2017 11:00:00 10,9 9,8 7 4 13 7 SE 1025,6 - 0,0
15.11.2017 10:00:00 10,7 9,5 6 3 10 6 SSE 1025,5 20 0,0
15.11.2017 09:00:00 10,7 9,3 6 3 14 8 SSE 1025,3 - 0,0
15.11.2017 08:00:00 11,1 9,2 8 5 20 11 SW 1025,1 - 0,0
15.11.2017 07:00:00 10,7 8,8 13 7 22 12 WSW 1024,7 20 0,0
15.11.2017 06:00:00 10,8 9,4 11 6 21 12 W 1024,6 - 0,0
15.11.2017 05:00:00 10,9 9,8 17 9 23 13 W 1024,6 - 0,0
15.11.2017 04:00:00 11,3 9,0 13 7 19 11 WNW 1024,7 - 0,0
15.11.2017 03:00:00 11,4 8,8 12 6 22 12 W 1025,0 - 0,0
15.11.2017 02:00:00 11,7 8,5 16 9 23 12 W 1024,8 - 0,0
15.11.2017 01:00:00 11,7 8,4 18 10 26 14 W 1024,9 20 0,0
15.11.2017 00:00:00 11,6 9,3 15 8 32 17 W 1024,9 - 0,0
14.11.2017 23:00:00 11,7 9,6 22 12 31 17 W 1024,9 - 0,0
14.11.2017 22:00:00 11,8 9,4 14 8 27 14 W 1024,8 20 0,0
14.11.2017 21:00:00 11,8 9,2 16 9 33 18 W 1024,9 - 0,0
14.11.2017 20:00:00 11,6 9,2 19 10 32 17 W 1024,8 - 0,0
14.11.2017 19:00:00 11,6 9,5 22 12 33 18 W 1024,7 - 0,0
14.11.2017 18:00:00 11,2 9,1 22 12 35 19 W 1024,5 - 0,0
14.11.2017 17:00:00 11,2 9,1 20 11 37 20 W 1024,4 - 0,0
14.11.2017 16:00:00 11,1 8,8 22 12 39 21 W 1024,3 - 0,0
14.11.2017 15:00:00 10,4 9,6 17 9 34 18 WSW 1024,4 - 0,0
14.11.2017 14:00:00 10,2 9,1 21 11 38 21 WSW 1024,7 - 0,0
14.11.2017 13:00:00 10,3 8,4 20 11 40 21 W 1024,9 - 0,0
14.11.2017 12:00:00 11,2 6,3 22 12 36 19 WSW 1025,2 - 0,0

tt = Température de l'air
td = dewpoint
ff = Vitesse du vent
fx = gusts
dd = Direction du vent
ppp = reduced air pressure
vv = visibility
rr = Quantités de précipitations

stations d'obs. à proximité